www.pogodaiklimat.ru
ПОГОДА в Ланкастере
Время
и дата
11:53 16.08
12:53 16.08
13:53 16.08
14:53 16.08
15:53 16.08
16:53 16.08
17:53 16.08
18:53 16.08
19:53 16.08
20:53 16.08
21:53 16.08
22:53 16.08
23:53 16.08
01:53 17.08
02:53 17.08
03:53 17.08
04:53 17.08
05:53 17.08
06:53 17.08
07:53 17.08
08:53 17.08
09:53 17.08
10:53 17.08
11:53 17.08
12:53 17.08
13:07 17.08
13:28 17.08
13:44 17.08
13:51 17.08
13:53 17.08
14:01 17.08
14:31 17.08
14:50 17.08
14:53 17.08
15:53 17.08
16:53 17.08
17:53 17.08
18:53 17.08
19:53 17.08
20:53 17.08
21:53 17.08
22:53 17.08
23:53 17.08
00:53 18.08
01:53 18.08
02:53 18.08
03:53 18.08
04:53 18.08
Ветер
(напр.,м/с)
Видим. Явления Облачность Т
(С)
Тd
(С)
f
(%)
Тe
(С)
Тes
(С)
Комфортность P
(гПа)
Po
(гПа)
Тmin
(С)
Tmax
(С)
R
(мм)
R24
(мм)
S
(см)
В 1 16 км 2/2 1650 м +26.7 +12.2 41 +28 +39 жарко 1016.2 1002.0
В 3 16 км ясно +28.3 +11.1 34 +29 +36 жарко 1016.0 1001.6 +18.3 +28.3
В 2 16 км 5/5 1200 м +28.9 +11.1 33 +29 +35 жарко 1015.5 1001.3
В 1
{4}
16 км 5/5 1200 м +28.3 +11.1 34 +29 +35 жарко 1014.9 1000.6
В 2 16 км 2/2 1200 м +28.3 +10.6 33 +29 +34 жарко 1015.0 1000.6
В 2 16 км 2/2 1200 м +28.3 +11.1 34 +29 +32 жарко 1014.9 1000.6
ЮВ 2 16 км 2/0 2100 м
[Ac]
+27.2 +11.7 38 +28 +30 жарко 1015.4 1001.0
ЮВ 1 16 км ясно +23.9 +11.7 46 +25 +26 комфорт 1015.7 1001.3 +23.9 +29.4
штиль 0 16 км ясно +23.3 +11.7 48 +26 +26 жарко 1015.8 1001.6
штиль 0 16 км ясно +21.1 +12.2 57 +23 +23 комфорт 1015.8 1001.3
штиль 0 16 км ясно +20.0 +12.2 61 +22 +22 комфорт 1015.6 1001.3
штиль 0 16 км ясно +18.9 +13.3 70 +20 +20 1015.9 1001.6
штиль 0 16 км ясно +17.2 +13.3 78 +17 +17 1016.3 1002.0
В 1 16 км 8/0 2550 м
[Ac]
+17.2 +13.9 81 +18 +18 1016.1 1002.0
штиль 0 16 км ясно +16.7 +12.8 78 +17 +17 1015.8 1001.6
штиль 0 16 км ясно +15.6 +12.8 83 +15 +15 1016.1 1001.6
штиль 0 16 км 10/0 2550 м
[Ac]
+16.7 +13.3 80 +17 +17 1016.2 1002.0
ЮВ 1 16 км 10/0 2550 м
[Ac]
+16.7 +13.3 80 +17 +17 1016.6 1002.3
С 1 16 км 8/0 3000 м
[Ac]
+18.9 +13.9 73 +20 +21 1017.0 1002.6 +15.0 +18.9
штиль 0 16 км ясно +20.6 +13.9 65 +23 +26 комфорт 1017.0 1002.6
штиль 0 16 км ясно +22.2 +13.9 59 +25 +33 комфорт 1017.0 1002.6
штиль 0 16 км ясно +22.8 +13.9 57 +26 +39 жарко 1017.0 1002.6
ЮЗ 1 16 км ясно +22.8 +13.9 57 +26 +40 жарко 1016.8 1002.6
ЮЗ 1 16 км 10/0 3600 м
[Ac]
+26.1 +15.0 50 +29 +34 жарко 1016.4 1002.0
штиль 0 16 км 2/0 3600 м
[Ac]
+26.7 +15.0 49 +29 +50 жарко 1015.8 1001.6 +18.9 +26.7
штиль 0 16 км ясно +27.2 +15.0 47 +30 +53 опасность
солнечного
удара
1001.3
В 2 0 м гроза 5/2 1290 м
[Ac]
+28.3 +13.3 40 +30 +37 жарко 1001.3
С 3 16 км гроза 8/2 1320 м
[Ac]
+25.0 +13.9 50 +27 +31 жарко 1001.3
С 2 0 м гроза 8/2 1380 м
[Ac]
+24.0 +14.0 54
С 1 0 м гроза, слабый дождь 8/2 1380 м
[Ac]
+23.3 +14.4 57 1015.5
С 2 0 м гроза с дождем 8/2 1380 м
[Ac]
+21.1 +16.1 73
СЗ 2 0 м гроза, слабый дождь 10/0 3000 м
[Ac]
+20.6 +16.7 78 +24 +27 комфорт 1001.3
З 1 16 км слабый дождь 8/0 3300 м
[Ac]
+20.0 +16.0 78 +23 +28 комфорт 1001.0
З 1 16 км слабый дождь 8/0 3300 м
[Ac]
+20.0 +16.1 78 +23 +29 комфорт 1015.3 1001.0
З 1 16 км 8/0 3300 м
[Ac]
+20.6 +16.7 78 +24 +28 комфорт 1015.4 1001.0 1.5
З 1 16 км 8/0 3300 м
[Ac]
+23.3 +15.0 60 +27 +30 душно 1015.1 1001.0
З 1 16 км ясно +23.3 +15.6 62 +28 +30 душно 1014.6 1000.3
З 1 16 км ясно +21.1 +15.6 71 +24 +25 комфорт 1014.9 1000.6 +20.0 +28.3 1.5
З 1 16 км 8/0 3000 м
[Ac]
+20.6 +16.7 78 +25 +25 комфорт 1015.2 1001.0
З 1 16 км ясно +19.4 +17.2 87 +22 +22 комфорт 1015.4 1001.0
З 1 16 км 8/0 3600 м
[Ac]
+18.9 +16.1 84 +20 +20 1014.9 1000.6
ЮЗ 1 16 км 2/0 3600 м
[Ac]
+18.9 +16.1 84 +21 +21 комфорт 1014.4 1000.0
З 1 16 км ясно +17.8 +15.6 87 +18 +18 1014.3 1000.0
З 1 16 км ясно +17.2 +15.6 90 +17 +17 1014.3 1000.0 +17.2 +21.1
СЗ 1 13 км ясно +16.7 +15.0 90 +16 +16 1013.9 999.6
З 1 13 км ясно +16.7 +15.0 90 +17 +17 1014.2 999.6
З 1 13 км ясно +16.1 +15.0 93 +16 +16 1014.3 1000.0
З 1 11 км ясно +15.6 +13.9 90 +15 +15 1014.6 1000.3
Местоположение метеостанции Lancaster Airport: широта 40.1206 долгота -76.2945 высота над уровнем моря 121 м.
В архиве по умолчанию представлена погода в Ланкастере за последние 1-2 суток. Обновление информации о фактической погоде в базе происходит ежечасно! Архивные данные за месяц целиком и за предыдущие месяцы Вы можете получить, выбрав интересующий диапазон дат из раскрывающегося списка и нажав кнопку "Ввод!".
Внимание! Архив погоды МЕТАР в базе сайта по станциям, не включенным в климатический монитор, хранится не более 60 дней. Нет смысла пытаться выбрать более раннюю дату.
*Определитесь, кто Вы:
Внимание! Время в таблицах - местное (без учета летнего времени). Для получения всемирного времени необходимо вычесть поправку, которая равна -5 ч.
Смотрите также архив погоды в соседних городах и на ближайших метеорологических станциях:
Партнеры нашего сайта:      
Пояснения к столбцам:
  • Ветер - указаны скорость ветра в м/с - средняя за 10 мин, порывы в срок и между сроками (в фигурных скобках) и направление, откуда дует ветер: С - северный,
  • СВ - северо-восточный, В - восточный, ЮВ - юго-восточный, Ю - южный, ЮЗ - юго-западный, З - западный, СЗ - северо-западный.
  • Видимость - горизонтальная дальность видимости в метрах или километрах. При видимости от 1 до 10 км при отсутствии осадков обычно наблюдается дымка, при ухудшении видимости до 1 км и менее - туман. В сухую погоду видимость может ухудшаться дымом, пылью или мглою.
  • Явления - указаны атмосферные явления, наблюдавшиеся в срок или в последний час перед сроком; фигурными скобками обозначены явления, наблюдавшиеся между сроками (за 1-3 часа до срока); квадратными скобками обозначены град или гололедные отложения с указанием их диаметра в мм.
  • Облачность - указаны через наклонную черту общая и нижняя облачность в баллах и высота нижней границы облаков в метрах; квадратными скобками обозначены формы облаков: Ci - перистые, Cs - перисто-слоистые, Cc - перисто-кучевые, Ac - высококучевые, As - высокослоистые, Sc - слоисто-кучевые, Ns - слоисто-дождевые, Cu - кучевые, Cb - кучево-дождевые. Подробнее классификацию облаков см. в Атласе облаков (PDF).
  • T - Температура воздуха - температура, измеренная на высоте 2 м над землей.
  • Td - Температура точки росы - температура, при понижении до которой содержащийся в воздухе водяной пар достигнет насыщения.
  • f - Относительная влажность воздуха - влажноcть воздуха, измеренная на высоте 2 м над землей.
  • Te - Эффективная температура - температура, которую ощущает одетый по сезону человек в тени. Характеристика душности погоды. При расчете учитывается влияние влажности воздуха и скорости ветра на теплоощущения человека.
  • Tes - Эффективная температура на солнце - температура, которую ощущает человек, с поправкой на солнечный нагрев. Характеристика знойности погоды. Зависит от высоты солнца над горизонтом, облачности и скорости ветра. Ночью, в пасмурную погоду, а также при ветре 12 м/с и более поправка равна нулю.
  • P - Атмосферное давление - приведенное к уровню моря атмосферное давление.
  • Po - Атмосферное давление - измеренное на уровне метеостанции атмосферное давление.
  • Tmin - Минимальная температура - минимум температуры воздуха на высоте 2 м над землей.
  • Tmax - Максимальная температура - максимум температуры воздуха на высоте 2 м над землей.
  • R - Количество осадков - Количество выпавших осадков за период времени, мм. При наведении курсора мыши на число - период времени, за который выпало указанное количество осадков.
  • R24 - Количество осадков - Количество выпавших осадков за 24 часа, мм.
  • S - Снежный покров - Высота снежного покрова, см. При наведении курсора мыши на число - состояние снежного покрова и степень покрытия местности в баллах.